Flag for U.S.A. Weather past 2 weeks in Abilene, Texas, U.S.A.

Now
84 °F

Clear.


Feels Like: 84 °F
Forecast: 73 / 92 °F
Wind: 9 mph from South

Location: Abilene Regional Airport

Current Time: Aug 20, 2014 at 11:58:25 PM

Latest Report: Aug 20, 2014 at 10:52 PM


Visibility: 10 mi

Pressure: 29.88 "Hg

Humidity: 45%

Dew point: 60 °F

Location of AbileneLocation

Historic Weather in Abilene — Graph

°F

Abilene temperature yesterday

Maximum temperature yesterday: 89 °F (at 4:52 PM)
Minimum temperature yesterday: 72 °F (at 12:52 AM)
Average temperature yesterday: 80 °F

Past Weeks' High & Low Weather Summary

 TemperatureHumidityPressure
High103 °F (Aug 7, 3:52 PM)84% (Aug 18, 7:52 AM)30.10 "Hg (Aug 18, 7:52 AM)
Low70 °F (Aug 13, 4:52 AM)18% (Aug 15, 6:52 PM)29.73 "Hg (Aug 7, 6:52 PM)
Average85 °F47%29.91 "Hg
* Reported Aug 5 10:52 PM — Aug 20 10:52 PM, Abilene, Weather by CustomWeather, © 2014

Note: Actual official high and low records may vary slightly from our data, if they occured in-between our weather recording intervals... More about our weather records

Advertising

Abilene weather history for previous 24 hours

 ConditionsComfort  
Time TempWeatherWind HumidityBarometerVisibility
10:52 PM
Aug 20
84 °FClear.9 mph45%29.88 "Hg10 mi
9:52 PM87 °FClear.14 mph39%29.86 "Hg10 mi
8:52 PM88 °FSunny.13 mph36%29.83 "Hg10 mi
7:52 PM91 °FSunny.18 mph33%29.81 "Hg10 mi
6:52 PM94 °FSunny.14 mph32%29.80 "Hg10 mi
5:52 PM95 °FSunny.20 mph31%29.79 "Hg10 mi
4:52 PM94 °FSunny.15 mph36%29.80 "Hg10 mi
3:52 PM96 °FSunny.20 mph35%29.82 "Hg10 mi
2:52 PM94 °FSunny.15 mph38%29.84 "Hg10 mi
1:52 PM93 °FSunny.21 mph40%29.86 "Hg10 mi
12:52 PM90 °FSunny.21 mph43%29.88 "Hg10 mi
11:52 AM87 °FSunny.23 mph48%29.89 "Hg10 mi
10:52 AM85 °FSunny.20 mph50%29.89 "Hg9 mi
9:52 AM81 °FSunny.23 mph56%29.88 "Hg10 mi
8:52 AM77 °FSunny.20 mph66%29.88 "Hg10 mi
7:52 AM75 °FClear.15 mph71%29.87 "Hg10 mi
6:52 AM75 °FClear.15 mph74%29.85 "Hg10 mi
5:52 AM76 °FClear.14 mph74%29.83 "Hg10 mi
4:52 AM77 °FClear.14 mph71%29.81 "Hg10 mi
3:52 AM78 °FClear.14 mph69%29.80 "Hg10 mi
2:52 AM79 °FClear.14 mph65%29.80 "Hg10 mi
1:52 AM78 °FClear.13 mph66%29.81 "Hg10 mi
12:52 AM79 °FClear.12 mph65%29.82 "Hg10 mi
11:52 PM
Aug 19
79 °FClear.10 mph62%29.83 "Hg10 mi
Weather by CustomWeather, © 2014

See weather overviewHow to use our weather pages